This is the latest recevied weather packets stored in our database for station/object W4SPD. If no packets are shown the sender has not sent any weather packets the latest 10 day(s).
| Time | Temp. | Humidity | Pressure | Rain* | Wind** | Luminosity | Snow |
|---|---|---|---|---|---|---|---|
| 1777745390 | 19.44° C | 49% | - | 0 mm | - | - | - |
| 1777745087 | 19.44° C | 49% | - | 0 mm | - | - | - |
| 1777744783 | 19.44° C | 49% | - | 0 mm | - | - | - |
| 1777744477 | 19.44° C | 48% | - | 0 mm | - | - | - |
| 1777744175 | 18.89° C | 51% | - | 0 mm | - | - | - |
| 1777743872 | 20° C | 51% | - | 0 mm | - | - | - |
| 1777743568 | 19.44° C | 52% | - | 0 mm | - | - | - |
| 1777743265 | 20° C | 52% | - | 0 mm | - | - | - |
| 1777742964 | 19.44° C | 52% | - | 0 mm | - | - | - |
| 1777742660 | 19.44° C | 52% | - | 0 mm | - | - | - |
| 1777742356 | 20° C | 53% | - | 0 mm | - | - | - |
| 1777742052 | 20° C | 50% | - | 0 mm | - | - | - |
| 1777741750 | 18.89° C | 54% | - | 0 mm | - | - | - |
| 1777741446 | 18.89° C | 56% | - | 0 mm | - | - | - |
| 1777741142 | 19.44° C | 56% | - | 0 mm | - | - | - |
| 1777740839 | 18.89° C | 58% | - | 0 mm | - | - | - |
| 1777740536 | 18.89° C | 55% | - | 0 mm | - | - | - |
| 1777740233 | 18.89° C | 55% | - | 0 mm | - | - | - |
| 1777739929 | 18.33° C | 58% | - | 0 mm | - | - | - |
| 1777739625 | 18.33° C | 58% | - | 0 mm | - | - | - |
| 1777739323 | 17.78° C | 58% | - | 0 mm | - | - | - |
| 1777739019 | 18.33° C | 58% | - | 0 mm | - | - | - |
| 1777738717 | 17.78° C | 61% | - | 0 mm | - | - | - |
| 1777738413 | 17.78° C | 63% | - | 0 mm | - | - | - |
| 1777738111 | 17.78° C | 62% | - | 0 mm | - | - | - |
* Rain latest hour (hover to see other rain measurements)
** Current wind speed in m/s (hover to see current wind gust speed)